Location: Hanmanchip?lem
(16.7885°N, 80.2575°E)
Time: 14:22:29
(UTC+00:00)

Gbstr 26 Del rocket - Pass Details

Date: 26 September 2023
Orbit: 491 x 1247 km, 51.8° (Epoch: 05 December)

Event Time Altitude Azimuth Distance (km) Brightness Sun altitude
Exits shadow 23:59:59 - 302° (WNW) 3,080 6.1 -7.6°
Reaches altitude 10° 00:02:00 10° 293° (WNW) 2,399 5.5 -7.1°
Maximum altitude 00:06:22 24° 240° (WSW) 1,455 4.5 -6.1°
Drops below altitude 10° 00:10:06 10° 186° (S) 2,020 5.6 -5.2°
Sets 00:12:33 0° 172° (S) 2,820 6.6 -4.6°
